Theta_e
320 325 339 338 341 338 335 333 333 335 335 331 331 331 330 328 328 328 327 327 327 326 329 328 329 328 328 328 327 326 326 328 327 327 327 328 327 325 327 325 324 321 328
322 328 338 338 339 337 334 332 331 335 332 332 331 328 329 327 328 327 327 326 326 326 329 328 327 327 325 324 323 323 324 325 325 323 324 325 324 325 324 327 325 322 325
325 331 334 338 338 335 333 332 331 334 331 331 330 329 327 328 327 327 326 326 325 326 328 324 325 324 324 321 322 320 321 322 324 324 324 320 317 324 324 323 322 324 323
328 330 331 337 338 335 333 332 331 335 331 329 329 330 328 327 326 326 326 325 325 325 325 324 324 324 323 322 321 320 319 322 322 320 315 318 316 322 323 322 322 322 323
325 327 333 337 338 337 334 332 331 331 329 328 329 328 327 326 326 325 325 324 324 324 324 323 323 322 322 321 320 319 319 320 319 313 313 315 316 320 323 320 319 320 321
323 328 334 338 338 337 335 331 330 331 332 329 327 327 326 326 325 325 324 324 323 323 323 322 323 321 319 321 319 318 319 319 314 307 310 313 319 322 323 320 319 319 319
323 328 332 336 337 336 333 331 331 328 331 328 328 326 325 324 324 323 323 322 322 321 321 321 321 319 318 319 319 318 318 316 306 307 308 310 318 322 321 320 319 318 319
326 328 331 331 332 333 333 332 331 329 328 326 326 325 325 324 323 322 322 321 321 320 319 318 318 319 317 318 318 317 316 313 307 306 307 310 321 321 319 320 318 318 318
323 329 330 330 329 329 330 330 330 328 328 326 326 324 323 323 322 321 320 320 319 318 317 316 316 316 314 315 316 315 314 312 303 304 307 311 320 320 318 318 318 317 317
320 326 327 327 327 326 325 326 327 326 324 326 323 323 320 322 321 321 320 319 318 316 315 313 312 312 311 311 311 311 310 309 302 303 304 310 318 317 318 317 316 316 316
317 322 326 324 323 323 323 321 322 323 323 323 321 319 314 309 309 309 315 317 316 314 312 309 308 307 306 306 307 306 303 297 300 300 303 317 316 316 316 316 316 315 315
312 318 323 322 321 321 321 315 314 317 317 315 313 311 308 306 306 308 311 316 314 311 308 306 304 302 293 287 288 294 291 294 297 298 301 314 318 316 315 314 314 314 313
313 317 320 320 320 318 315 311 309 308 307 308 309 305 305 304 304 302 300 299 298 297 291 293 290 287 287 286 286 286 287 290 291 294 299 310 315 317 315 314 313 313 312
309 312 318 317 316 314 314 311 307 306 305 304 304 304 302 301 299 298 296 295 293 289 287 287 286 286 286 287 286 286 286 285 288 289 289 302 308 312 316 315 315 314 312
309 311 316 315 313 312 312 308 306 305 304 304 303 303 302 300 298 297 294 291 290 288 286 286 286 286 286 286 287 286 286 285 285 287 287 296 300 305 309 313 314 315 315
309 310 315 313 313 311 310 309 307 305 304 302 302 302 301 300 298 297 294 292 289 287 287 287 286 286 286 287 286 287 286 286 286 286 286 287 298 300 302 305 309 311 314
308 309 313 313 312 311 309 309 307 306 305 302 302 301 301 300 298 297 294 292 290 287 287 287 287 287 287 287 287 287 287 286 286 286 286 286 288 297 301 302 303 305 308
307 307 311 314 311 310 309 309 307 306 304 303 302 301 301 300 298 295 294 292 290 287 287 287 286 286 286 286 286 286 287 287 287 286 286 285 285 286 291 300 302 304 303
307 306 309 311 310 309 308 308 306 305 304 303 301 301 300 299 298 295 293 292 289 287 287 287 286 286 285 286 287 287 287 286 287 288 286 286 285 287 285 291 298 300 302
307 306 307 310 310 309 307 305 303 301 301 299 301 301 300 298 296 294 293 292 289 287 286 286 286 286 286 286 289 289 288 289 287 286 286 287 285 285 285 285 284 286 296
306 305 305 307 308 308 303 305 304 305 300 297 296 300 299 298 295 293 292 291 289 287 287 287 287 286 286 286 286 287 288 289 288 287 286 285 285 285 284 284 284 284 284
303 305 305 304 306 307 308 307 304 299 298 300 298 296 297 297 296 293 291 290 289 288 287 287 287 287 287 287 286 285 283 286 288 289 287 286 285 285 285 285 284 284 283
302 303 304 303 302 306 306 300 298 298 297 297 297 297 296 296 295 295 292 291 290 289 288 288 287 287 287 287 287 286 283 281 283 286 286 287 286 285 285 285 285 285 284
302 302 303 303 301 302 299 303 304 304 304 300 301 299 298 296 295 295 294 293 292 291 290 289 290 288 288 286 287 289 286 285 283 283 287 286 286 287 286 286 286 286 285
303 301 301 301 299 299 297 302 301 302 301 296 297 297 297 297 297 295 295 293 293 292 291 290 290 289 288 288 287 287 286 285 285 284 284 286 287 288 288 286 286 286 286
303 300 299 296 295 296 296 297 297 298 294 294 294 297 296 296 297 296 296 295 294 294 292 292 291 290 289 289 288 288 288 287 284 283 282 282 282 286 286 287 286 286 285
Wind_Speed
5 6 10 10 16 18 15 15 15 14 15 15 14 15 14 14 15 16 14 15 15 15 17 17 16 15 14 17 18 19 17 18 18 17 17 18 18 16 19 17 15 12 18
8 6 10 11 18 19 16 16 15 13 14 16 13 14 14 14 14 15 15 15 15 15 17 18 16 16 15 15 15 14 15 16 15 15 12 15 18 17 16 16 17 15 18
8 6 6 11 18 18 16 17 15 13 14 14 15 13 13 14 14 15 14 14 15 15 18 15 16 15 15 14 16 13 15 15 15 13 11 4 9 15 16 16 16 15 16
8 6 6 13 18 19 17 17 15 14 15 14 14 15 13 13 14 14 14 13 14 14 15 14 16 15 13 14 15 14 14 13 14 13 5 5 7 15 16 14 15 16 15
7 6 6 17 18 18 18 17 16 12 12 13 15 11 12 12 13 13 13 13 13 13 14 14 13 13 13 13 15 13 11 14 15 11 7 5 5 13 14 15 13 14 14
7 6 10 18 19 18 18 18 16 14 13 14 12 13 11 13 12 12 12 12 12 13 13 13 13 12 12 12 13 12 11 14 12 6 6 7 5 14 13 13 13 12 13
6 6 10 17 19 18 19 18 16 15 13 14 14 13 13 12 12 11 11 11 11 12 12 12 12 12 11 11 12 11 11 13 7 6 6 6 6 14 11 12 11 12 11
8 8 10 13 17 17 17 17 15 15 13 13 13 12 13 12 11 11 11 11 11 11 11 11 9 11 10 10 11 9 11 11 7 7 6 5 9 13 9 10 10 11 11
6 8 9 11 12 13 15 14 14 15 13 11 14 12 13 11 11 11 10 10 10 10 10 9 9 9 9 9 9 9 10 10 6 4 6 4 3 11 8 7 9 10 9
5 6 8 9 10 9 9 14 12 12 13 11 12 10 11 9 9 8 7 9 10 9 9 8 8 8 7 8 8 8 8 9 6 5 5 5 6 7 8 8 7 7 8
4 6 9 10 9 8 8 8 9 14 10 11 10 11 8 5 6 6 5 9 9 9 8 8 8 7 7 7 7 7 7 3 4 4 4 15 4 5 5 6 6 6 6
7 8 9 10 10 9 7 7 6 7 4 5 5 6 4 5 4 4 4 7 8 7 8 6 4 6 6 3 3 5 2 3 3 3 3 13 10 5 4 3 3 4 4
11 7 8 10 10 9 7 5 3 3 4 4 6 5 4 3 3 3 3 3 3 5 3 4 4 2 2 1 2 2 2 2 2 2 4 9 10 8 5 3 2 2 2
11 10 9 8 8 6 7 5 5 5 3 4 5 6 4 3 3 2 2 2 2 1 2 2 1 1 1 0 1 0 1 1 1 2 4 7 7 7 7 6 6 4 3
12 10 11 9 8 7 10 5 5 5 4 5 5 5 5 4 4 4 3 2 2 1 1 1 1 1 1 1 1 2 2 3 3 2 2 8 7 7 7 7 8 8 7
13 13 14 11 9 8 7 9 7 5 5 5 4 5 6 5 5 4 4 4 3 3 2 2 3 2 2 2 4 4 4 4 4 5 4 4 10 9 8 8 8 9 10
13 12 14 13 10 10 8 8 7 7 6 5 5 6 7 6 5 6 4 4 4 3 3 2 2 1 2 2 5 5 4 6 5 6 5 4 5 10 12 11 10 10 10
13 14 13 11 11 11 9 8 6 6 5 5 5 5 7 7 7 5 4 4 4 3 3 2 2 2 3 3 3 5 5 5 6 7 5 5 4 4 8 13 14 13 12
14 14 14 13 13 12 9 7 6 7 6 5 4 5 7 7 7 6 5 5 5 4 3 3 3 2 2 4 5 5 5 5 7 6 7 7 6 6 4 10 14 14 15
14 13 14 12 12 11 7 5 4 4 4 4 5 6 7 6 7 6 4 5 5 3 3 2 4 3 3 3 4 6 6 7 6 6 7 5 6 6 6 6 5 6 14
14 15 15 14 13 11 5 7 6 8 4 3 4 7 7 6 7 6 5 5 5 5 5 5 3 4 3 1 3 4 4 6 6 5 4 5 6 6 6 5 4 4 5
16 16 17 17 15 13 10 7 4 4 2 3 4 5 6 7 7 6 6 6 6 4 5 5 4 2 2 3 1 1 5 6 3 2 2 4 6 3 5 6 6 6 6
18 19 17 17 16 15 13 6 4 4 3 4 3 4 6 7 7 7 8 6 6 5 5 6 5 6 3 1 5 3 3 3 4 3 3 2 4 2 4 5 6 7 7
21 16 17 17 15 14 13 13 14 10 11 5 6 4 5 7 7 7 7 7 7 5 6 6 5 5 4 5 1 4 2 2 2 6 4 3 4 4 5 4 5 6 6
15 17 16 15 15 15 15 15 12 10 5 3 3 7 6 6 7 7 7 7 7 5 6 7 5 6 5 4 4 2 2 2 3 4 6 4 4 4 5 5 5 5 5
13 14 14 16 14 13 15 15 15 14 7 6 5 6 5 4 5 6 7 7 7 7 7 6 7 7 6 5 4 4 4 4 3 4 4 5 5 5 4 5 5 5 5
Wind_Direction
203 193 163 151 144 121 117 120 121 120 117 105 112 118 109 111 104 97 97 94 92 93 94 91 90 81 69 69 66 72 65 65 64 63 69 68 76 72 66 64 60 57 55
144 185 169 150 143 125 130 123 127 119 115 119 121 108 110 110 105 101 101 99 97 97 95 91 85 88 84 85 85 82 77 68 71 71 63 75 71 70 63 63 65 63 61
143 161 147 149 138 129 130 127 129 117 126 122 115 127 120 113 109 107 102 101 100 102 100 105 110 104 93 97 87 86 92 73 65 59 56 33 76 74 68 67 68 69 67
146 149 155 154 142 134 137 134 134 131 125 131 135 117 127 114 113 110 106 104 102 105 106 102 87 81 95 92 90 89 90 67 52 48 24 36 78 74 65 75 64 59 56
139 149 168 154 145 141 137 138 137 133 136 134 125 130 115 115 112 115 112 111 109 107 105 103 99 91 80 103 97 100 87 51 47 35 18 27 71 78 76 72 65 64 59
145 152 147 151 147 141 140 141 141 135 135 132 116 129 135 124 123 114 113 107 108 108 109 107 103 99 93 98 103 102 77 48 44 30 31 16 44 81 73 72 69 67 62
146 152 152 152 146 142 141 145 144 146 138 133 142 139 127 127 129 122 117 114 111 110 111 110 115 111 93 91 101 101 71 51 37 30 21 10 61 71 68 71 74 67 63
143 141 147 147 143 147 147 144 142 146 136 154 136 147 134 136 132 129 124 121 118 115 114 115 117 109 100 93 103 86 71 58 38 31 12 354 81 79 73 66 70 69 63
130 133 145 150 145 145 146 142 143 149 142 154 146 154 144 139 139 132 130 127 123 119 118 116 118 112 101 94 94 72 69 60 48 21 9 341 59 84 80 78 71 69 66
142 133 140 142 144 140 147 134 142 154 166 162 157 135 148 106 114 114 116 131 129 127 123 121 120 115 102 91 85 67 60 50 35 22 356 329 82 81 51 66 65 55 60
166 156 146 145 139 136 138 136 141 124 135 133 140 96 86 90 89 86 122 135 137 136 134 129 117 104 72 78 73 61 56 33 31 16 350 353 57 66 69 53 49 55 57
182 176 158 151 145 140 142 119 124 135 147 129 107 101 105 115 121 108 99 130 142 145 141 128 125 85 65 48 19 41 39 31 29 5 350 3 357 27 54 51 44 29 44
175 183 162 159 152 145 138 125 120 120 124 125 116 125 134 120 108 111 84 56 53 69 47 55 58 52 82 81 41 43 26 21 359 342 333 353 357 347 347 8 2 354 352
171 179 168 160 156 147 141 148 147 137 140 145 148 143 142 137 138 135 129 144 130 68 85 72 77 115 89 91 150 110 324 318 303 311 311 326 332 334 328 321 319 307 298
178 179 178 169 164 154 152 143 151 151 159 162 156 157 152 158 168 155 168 168 176 150 173 197 204 219 238 255 251 238 253 265 273 273 284 296 299 303 301 301 295 289 293
180 183 181 177 169 159 161 160 169 161 160 159 167 171 165 163 167 177 178 189 204 205 203 199 205 225 261 284 280 266 258 255 255 255 257 274 278 278 284 287 286 287 288
185 177 183 178 170 171 169 167 169 175 159 169 174 171 172 172 180 176 183 195 209 202 202 199 236 261 282 284 275 275 269 262 258 254 251 249 265 272 268 270 276 280 282
175 183 180 179 178 178 177 176 173 173 163 182 176 171 178 179 180 185 182 203 195 192 189 192 204 249 257 259 277 273 270 264 257 250 249 245 245 249 266 267 268 269 275
181 179 184 181 179 182 177 174 173 170 172 187 183 177 184 185 182 178 188 195 183 187 195 199 213 206 253 272 267 265 260 254 250 250 240 238 239 242 241 260 265 270 273
187 175 184 186 183 179 172 152 156 163 180 173 191 192 181 188 183 176 187 191 176 177 201 203 221 228 241 264 290 285 267 255 243 234 243 240 231 233 239 245 259 272 272
190 184 180 186 186 175 168 179 188 195 180 188 186 203 184 184 184 179 187 189 180 188 201 191 190 230 293 250 326 306 286 260 263 248 241 243 244 239 239 242 245 251 271
188 192 188 188 185 184 191 189 167 151 162 164 179 199 198 186 183 183 185 194 189 185 200 196 181 201 246 187 202 260 332 331 335 315 281 264 258 248 255 254 253 251 249
193 195 192 187 184 188 185 141 102 95 84 155 182 198 207 191 190 190 189 186 192 187 200 198 189 187 217 272 207 180 324 281 324 330 351 324 303 277 274 269 263 255 248
202 190 190 189 183 184 170 181 195 201 208 198 191 176 186 192 201 197 194 190 193 189 197 207 197 196 164 227 271 222 224 159 311 324 327 330 336 304 284 279 269 266 254
188 189 186 182 184 182 180 188 191 202 200 139 155 175 188 196 202 200 197 197 196 196 202 197 191 198 195 194 190 183 215 227 206 224 296 308 330 294 293 285 280 277 265
180 180 179 176 181 180 183 190 191 196 171 160 170 190 196 197 202 204 196 206 202 201 202 203 207 206 204 215 201 202 193 204 194 198 243 283 264 283 266 276 275 274 290